Powrót do katalogu

STARLINK-4623

AktywnyŁącznośćVLEO
NORAD 55315·PAYLOAD·🇺🇸 United States

Wystrzelony Jan 19, 2023 z Vandenberg Space Force Base

Loading…

Następne Przeloty (najbliższe 24 godziny)

TLE

ŚwieżeSource: CelesTrak SupGP

Epoka: Sep 14, 2026, 21:00 UTC

1 55315C 23010AY  26257.87548611  .00063573  00000+0  53287-2 0  2574
2 55315  69.9997 267.4585 0003879 267.8604 217.5134 14.98289188    19

Śledź STARLINK-4623 w czasie rzeczywistym z AllMySat

Download on the App Store